SCP
0 0 0 0 0 0 0 0 0 0 0 0 0 0 0 0 0 0 0 0 0 0 0 0 0 0 0 0 0 0 0 0 0 0 0 0 0 0 0 0 0 0 0 0 0
0 0 0 0 0 0 0 0 0 0 0 0 0 0 0 0 0 0 0 0 0 0 0 0 0 0 0 0 0 0 0 0 0 0 0 0 0 0 0 0 0 0 0 0 0
0 0 0 0 0 0 0 0 0 0 0 0 0 0 0 0 0 0 0 0 0 0 0 0 0 0 0 0 0 0 0 0 0 0 0 0 0 0 0 0 0 0 0 0 0
0 0 0 0 0 0 0 0 0 0 0 0 0 0 0 0 0 0 0 0 0 0 0 0 0 0 0 0 0 0 0 0 0 0 0 0 0 0 0 0 0 0 0 0 0
0 0 0 0 0 0 0 0 0 0 0 0 0 0 0 0 0 0 0 0 0 0 0 0 0 0 0 0 0 0 0 0 0 0 0 0 0 0 0 0 0 0 0 0 0
0 0 0 0 0 0 0 0 0 0 0 0 0 0 0 0 0 0 0 0 0 0 0 0 0 0 0 0 0 0 0 0 0 0 0 0 0 0 0 0 0 0 0 0 0
0 0 0 0 0 0 0 0 0 0 0 0 0 0 0 0 0 0 0 0 0 0 0 0 0 0 0 0 0 0 0 0 0 0 0 0 0 0 0 0 0 0 0 0 0
-0 -0 -0 0 0 0 0 0 0 0 0 0 0 0 0 0 0 0 0 0 0 0 0 0 0 0 0 0 0 0 0 0 0 0 0 0 0 0 0 0 0 0 0 0 0
-0 -0 -0 -0 0 0 0 0 0 0 0 0 0 0 0 0 0 0 0 0 0 0 0 0 0 0 0 0 0 0 0 0 0 0 0 0 0 0 0 0 0 0 0 0 0
-0 -0 -0 -0 0 0 0 -0 0 0 0 0 0 0 0 0 0 0 0 0 0 0 0 0 0 0 0 0 0 0 0 0 0 0 0 0 0 0 0 0 0 0 0 0 0
0 0 0 0 0 0 0 0 0 0 0 0 0 0 0 0 -0 0 0 0 0 0 0 0 0 0 0 0 0 0 0 0 0 0 0 0 0 0 0 0 0 0 0 0 0
0 0 0 0 0 0 0 0 0 0 0 0 0 0 0 0 0 0 -0 -0 0 0 0 0 0 0 0 0 0 0 0 0 0 0 0 0 0 0 0 0 0 0 0 0 0
0 0 0 0 0 0 0 0 0 0 -0 0 0 0 0 0 0 0 -0 -0 -0 0 0 0 0 0 0 0 0 0 0 0 0 0 0 0 0 0 0 0 0 0 0 0 0
0 0 0 0 0 0 0 0 0 0 0 0 0 0 0 0 0 -0 -0 -0 -0 -0 0 0 0 0 0 0 0 0 0 0 0 0 0 0 -0 0 0 0 0 0 0 0 0
0 0 0 0 0 0 0 0 0 0 0 0 0 0 0 0 0 0 0 -0 -0 0 0 0 0 0 0 0 0 0 0 0 0 0 0 0 0 -0 0 0 0 0 0 0 0
0 0 0 0 0 0 0 0 0 0 0 0 0 0 0 0 0 -0 -0 -0 0 0 -0 0 0 0 0 0 0 0 0 0 0 0 0 0 0 -0 0 0 0 0 0 0 0
0 0 0 0 0 0 0 0 0 0 0 0 0 0 0 0 0 0 -0 -0 -0 -0 0 0 0 0 0 0 0 0 0 0 0 0 0 0 0 0 0 0 0 0 0 0 0
0 0 0 0 0 0 0 0 0 0 0 0 0 0 0 0 0 0 -0 -0 0 0 0 0 0 0 0 0 0 0 0 0 0 0 0 0 0 0 0 0 0 0 0 0 0
0 0 0 0 0 0 0 0 0 0 0 0 0 0 0 0 0 0 -0 -0 0 0 0 0 0 0 0 0 0 0 0 0 0 0 0 0 0 0 0 0 0 0 0 0 0
0 0 0 0 0 0 0 0 0 0 0 0 0 0 0 0 0 0 0 0 0 0 0 0 0 0 0 0 0 0 0 0 0 0 0 0 0 0 0 0 0 0 0 0 0
0 0 0 0 0 0 0 0 0 0 0 0 0 0 0 0 0 0 0 0 -0 0 0 0 0 0 0 0 0 0 0 0 0 0 0 0 0 0 0 0 0 0 0 0 0
0 0 0 0 0 0 0 0 0 0 0 0 0 0 0 0 0 0 0 -0 0 0 0 0 0 0 0 0 0 0 0 0 0 0 0 0 0 0 0 0 0 0 0 0 0
0 0 0 0 0 0 0 0 0 0 0 0 0 0 0 0 0 0 0 -0 0 0 0 0 0 0 0 0 0 0 0 0 0 0 0 0 0 0 0 0 0 0 0 0 0
0 0 0 0 0 0 0 0 0 0 0 0 0 0 0 0 0 0 0 0 0 0 0 0 0 0 0 -0 0 0 0 0 0 0 0 0 0 0 0 0 0 0 0 0 0
0 0 0 0 0 0 0 0 0 0 0 0 0 0 0 0 0 0 0 -0 -0 0 0 0 0 0 0 0 0 0 0 0 0 0 0 0 0 0 0 0 0 0 0 0 0
0 0 0 0 0 0 0 0 0 0 0 0 0 0 0 0 0 0 -0 0 0 0 0 0 -0 0 0 0 -0 0 0 0 0 0 0 0 0 0 0 0 0 0 0 0 0
0 0 0 0 0 0 0 0 0 0 0 0 0 0 0 0 0 0 0 0 0 -0 0 0 0 0 0 0 -0 0 0 0 0 0 0 0 0 0 0 0 0 0 0 0 0
Wind_Speed_500mb
28 29 30 31 30 30 31 33 34 33 33 29 29 32 32 32 28 9 8 8 15 24 26 22 15 11 14 12 14 11 6 7 9 11 8 9 10 9 1 22 15 21 10 11 44
28 27 28 30 31 32 31 32 34 35 36 35 30 27 28 28 15 16 6 7 12 17 23 25 22 12 8 9 13 12 9 17 9 11 7 6 9 19 5 9 5 16 18 20 50
26 28 29 28 29 31 33 34 35 37 38 40 39 28 25 24 4 2 5 7 14 17 13 18 21 15 13 12 13 10 12 10 10 11 4 2 7 14 3 4 6 16 33 42 56
27 27 31 32 29 28 31 32 33 36 37 38 39 35 27 19 2 7 4 6 10 17 10 13 16 10 12 11 15 6 17 14 16 14 8 4 9 15 8 4 17 15 35 49 60
22 24 28 33 33 32 30 31 32 34 36 38 38 36 33 18 3 16 21 18 12 12 7 6 9 5 9 11 6 8 8 21 19 16 9 7 7 6 21 11 9 16 43 52 59
22 24 29 32 33 34 31 30 30 33 36 36 36 35 29 11 7 13 14 12 21 15 6 5 8 8 10 4 10 9 27 12 22 19 9 8 10 5 5 6 5 23 44 56 61
26 28 29 32 33 32 31 30 32 35 34 36 33 32 31 21 16 19 25 25 20 24 15 12 10 10 10 6 15 7 8 9 21 18 8 7 12 14 34 17 7 22 43 57 61
26 30 35 41 35 33 33 35 37 34 31 28 26 25 19 15 13 7 11 10 13 20 25 21 8 16 6 14 5 9 2 10 13 28 18 17 31 18 32 20 15 20 31 53 59
27 29 34 39 39 38 37 35 35 27 20 19 20 14 17 6 6 9 16 21 24 15 24 29 15 9 5 4 7 12 14 23 5 31 12 28 11 34 29 25 24 16 28 40 56
22 25 28 32 32 37 40 35 26 18 13 12 8 12 8 7 16 25 21 23 21 28 17 14 10 10 10 11 22 10 17 9 29 12 13 19 22 10 42 51 41 28 15 31 46
23 26 26 26 28 31 33 24 15 7 9 11 14 15 37 32 34 19 22 21 23 8 2 7 11 28 26 21 19 5 9 25 6 13 13 31 21 34 28 43 48 49 34 25 41
16 17 19 22 23 24 24 15 15 13 21 22 14 22 20 16 19 25 18 5 1 8 5 8 25 19 14 17 25 26 11 12 12 8 10 7 28 28 31 35 53 56 45 30 33
15 15 19 20 20 18 20 22 16 9 9 18 6 8 5 12 11 22 4 2 7 4 8 15 11 20 24 28 23 29 35 8 6 9 6 4 13 18 20 41 44 58 53 42 33
18 17 18 18 14 16 17 24 12 10 9 11 7 5 7 15 10 19 18 13 5 13 11 16 24 30 24 22 27 26 17 19 20 5 7 9 19 22 31 26 37 57 60 58 46
18 15 16 14 14 13 16 13 10 8 8 8 6 7 17 8 20 2 6 9 14 9 7 13 6 12 23 37 21 13 12 27 21 7 7 9 5 11 22 40 44 37 52 74 73
18 14 13 10 9 10 15 6 10 11 9 12 9 9 12 5 6 10 9 13 8 8 12 13 8 6 5 15 33 10 16 5 11 15 13 29 17 9 13 19 25 26 51 68 56
13 11 8 8 8 11 9 5 9 8 8 14 5 9 6 7 9 5 5 4 7 5 5 8 32 17 14 7 9 21 11 11 16 15 29 27 13 29 4 6 10 28 48 58 60
10 8 5 6 10 10 8 9 10 6 11 7 7 9 3 6 7 8 9 5 8 8 4 6 12 22 21 26 7 22 16 4 11 20 38 12 23 22 14 13 6 17 36 44 59
12 8 2 1 4 6 3 7 12 12 6 7 14 9 12 9 3 10 4 5 7 10 14 7 12 2 15 12 22 11 22 30 7 4 9 11 29 12 5 7 10 8 27 47 61
13 7 2 1 4 3 7 8 7 9 5 1 3 4 6 9 8 9 5 4 10 4 18 8 10 11 2 25 27 14 13 11 13 6 9 9 17 24 13 12 8 12 25 39 63
12 8 6 3 4 4 6 12 10 16 9 7 6 6 10 6 7 5 12 8 8 9 17 4 4 7 4 9 15 10 25 12 8 8 8 6 10 5 13 12 21 18 36 46 52
7 2 9 4 3 5 4 10 4 8 7 9 6 8 7 6 6 6 10 9 9 12 12 8 7 8 18 4 16 12 28 29 9 9 6 3 8 8 14 12 23 32 42 49 58
5 6 9 6 3 4 6 8 9 6 9 4 6 11 4 6 4 11 7 8 3 7 10 13 4 6 13 3 3 10 10 10 19 8 8 13 9 12 16 23 32 40 52 58 59
4 2 5 9 5 9 4 8 7 10 11 9 9 2 2 7 12 10 9 8 24 8 13 21 7 13 10 8 3 7 5 2 5 14 12 8 9 4 10 28 32 42 53 57 55
5 5 6 4 6 5 5 5 4 6 10 9 7 11 9 6 7 9 8 9 13 6 19 4 9 7 14 14 9 8 14 16 17 20 28 10 11 24 19 29 40 62 54 51 47
6 6 3 1 5 5 7 9 11 7 9 9 10 6 9 11 15 21 8 3 11 7 9 2 7 9 8 12 10 17 23 22 31 38 31 20 3 9 24 28 37 47 60 53 46
14 13 5 7 5 5 10 11 11 8 14 23 14 6 13 25 33 42 42 28 25 16 14 7 6 6 9 5 12 13 14 17 24 27 31 34 16 22 18 28 40 51 52 51 47
Wind_Direction_500mb
5 1 0 2 1 359 358 357 356 359 354 1 1 356 350 352 355 19 50 336 291 242 244 234 237 218 228 215 205 170 95 210 223 159 242 327 335 21 167 154 178 197 192 209 174
355 354 351 349 349 350 350 353 352 352 350 349 356 353 343 349 35 88 55 301 303 262 245 242 238 223 202 208 203 175 166 206 216 180 203 302 342 329 68 149 163 169 186 180 175
346 347 350 344 340 342 345 345 345 344 345 344 343 355 340 340 51 100 42 322 309 309 260 238 232 222 199 193 204 192 196 200 194 190 210 265 314 335 229 192 229 192 172 176 181
345 347 346 344 342 335 336 338 339 338 337 335 337 340 341 342 60 226 276 301 323 332 249 218 207 200 195 184 205 225 229 204 187 199 189 273 317 319 276 176 295 243 195 184 188
349 347 345 344 338 331 328 328 331 332 330 329 331 333 340 333 332 248 273 277 298 315 320 215 205 211 221 179 200 233 232 212 208 204 215 209 237 263 278 296 289 232 192 195 198
344 343 344 340 335 333 328 326 327 323 321 321 321 324 328 319 293 277 308 308 266 278 286 275 21 302 287 277 180 295 225 181 185 196 210 201 224 216 280 260 306 198 195 199 203
335 336 338 339 332 332 328 328 323 316 313 312 311 311 308 303 290 294 289 295 274 270 269 254 340 347 345 336 268 254 298 256 211 199 220 155 253 214 233 269 221 205 203 200 208
331 327 331 336 331 328 324 324 319 313 305 304 307 306 281 294 314 324 321 342 290 267 250 255 292 313 241 315 274 186 186 234 183 171 216 162 242 215 216 211 211 211 213 211 213
327 325 325 326 327 327 325 326 319 312 300 302 300 301 282 313 315 331 346 336 324 300 260 258 278 239 207 252 201 216 215 224 299 200 165 193 229 221 202 194 174 177 215 219 222
308 313 317 319 324 325 327 329 315 314 294 290 287 300 286 328 310 296 308 313 330 327 299 259 235 235 182 182 217 205 224 239 219 208 218 206 231 263 216 214 221 205 201 220 222
313 315 318 321 328 325 336 351 347 305 322 274 268 263 289 301 301 314 328 303 286 293 261 291 230 225 224 225 276 342 313 238 206 222 181 222 217 232 233 215 215 214 203 211 221
339 329 331 331 330 333 349 35 11 313 314 318 289 267 297 320 313 329 330 298 231 210 188 306 255 245 271 214 233 265 266 289 255 241 213 228 233 239 213 219 210 211 206 190 193
328 337 336 332 326 330 352 2 2 359 288 300 316 313 342 315 292 309 283 261 222 236 220 221 246 228 243 249 219 233 237 245 303 321 247 350 246 223 241 236 229 232 223 209 200
295 301 324 330 324 325 341 342 349 333 61 289 341 8 327 316 281 301 296 226 238 236 223 250 247 258 256 269 246 237 204 215 261 324 237 170 261 209 210 228 226 228 235 232 212
278 293 302 322 311 320 324 332 353 339 24 281 308 315 316 256 299 324 1 221 220 221 171 248 223 225 244 240 250 239 202 202 228 211 333 234 255 239 184 224 222 217 221 233 238
275 275 291 305 324 308 321 324 330 42 265 330 316 332 346 285 258 278 293 251 224 239 242 239 287 236 289 306 223 291 260 232 197 217 244 221 211 208 200 207 220 212 216 224 224
254 259 265 298 310 309 322 316 31 117 320 299 296 345 337 283 302 233 270 262 229 206 275 292 251 238 201 271 238 205 224 170 190 191 231 190 193 237 245 202 206 208 208 214 215
220 217 237 284 296 301 337 49 78 238 239 299 307 307 241 360 276 319 283 276 258 153 217 205 310 191 188 203 223 207 233 216 183 195 229 110 221 217 224 155 195 248 228 210 194
181 177 256 15 299 310 21 51 206 203 233 307 326 31 317 338 355 354 239 246 276 210 204 169 262 141 203 184 186 193 209 237 308 326 175 181 239 311 145 96 103 85 181 183 182
169 154 98 12 311 326 79 252 213 220 300 210 228 170 227 273 5 30 291 242 297 273 316 234 261 232 48 204 224 223 141 177 221 179 222 216 222 218 177 169 136 130 124 148 168
167 153 186 295 308 103 155 228 254 258 236 217 245 277 238 265 192 256 260 273 225 293 287 297 207 290 27 236 192 188 240 260 216 200 185 158 239 195 199 201 172 140 137 146 150
200 94 185 268 59 94 171 197 261 275 229 264 252 240 234 223 272 258 231 224 348 340 323 278 237 235 229 293 191 248 234 210 258 178 219 231 273 349 249 181 136 121 125 132 141
232 200 208 220 147 245 297 275 239 225 232 230 258 222 214 245 282 220 258 274 337 353 351 1 273 344 325 3 59 235 201 223 252 272 236 189 243 346 114 100 115 123 128 131 130
242 13 185 198 195 146 178 268 287 238 246 227 248 219 312 258 220 266 284 280 321 237 313 323 244 187 211 221 251 284 266 335 252 234 231 264 159 159 153 131 125 126 133 134 132
253 257 202 248 251 129 186 197 237 277 225 218 280 214 183 282 286 239 244 303 300 281 341 293 266 225 243 249 256 257 271 275 257 260 220 213 227 187 173 153 146 143 140 135 132
251 197 199 239 143 121 232 242 207 260 193 258 210 259 190 219 212 280 289 214 256 324 336 270 280 308 277 245 250 282 282 273 260 251 253 171 169 124 115 125 134 144 147 145 140
226 240 245 170 144 147 225 227 211 170 253 235 222 231 249 258 266 268 270 252 256 278 292 273 336 303 268 326 324 301 243 242 261 229 188 180 175 147 132 148 156 156 156 151 149
Wind_Speed_850mb
28 29 30 31 30 30 31 33 34 33 33 29 29 32 32 32 28 9 8 8 15 24 26 22 15 11 14 12 14 11 6 7 9 11 8 9 10 9 1 22 15 21 10 11 44
28 27 28 30 31 32 31 32 34 35 36 35 30 27 28 28 15 16 6 7 12 17 23 25 22 12 8 9 13 12 9 17 9 11 7 6 9 19 5 9 5 16 18 20 50
26 28 29 28 29 31 33 34 35 37 38 40 39 28 25 24 4 2 5 7 14 17 13 18 21 15 13 12 13 10 12 10 10 11 4 2 7 14 3 4 6 16 33 42 56
27 27 31 32 29 28 31 32 33 36 37 38 39 35 27 19 2 7 4 6 10 17 10 13 16 10 12 11 15 6 17 14 16 14 8 4 9 15 8 4 17 15 35 49 60
22 24 28 33 33 32 30 31 32 34 36 38 38 36 33 18 3 16 21 18 12 12 7 6 9 5 9 11 6 8 8 21 19 16 9 7 7 6 21 11 9 16 43 52 59
22 24 29 32 33 34 31 30 30 33 36 36 36 35 29 11 7 13 14 12 21 15 6 5 8 8 10 4 10 9 27 12 22 19 9 8 10 5 5 6 5 23 44 56 61
26 28 29 32 33 32 31 30 32 35 34 36 33 32 31 21 16 19 25 25 20 24 15 12 10 10 10 6 15 7 8 9 21 18 8 7 12 14 34 17 7 22 43 57 61
26 30 35 41 35 33 33 35 37 34 31 28 26 25 19 15 13 7 11 10 13 20 25 21 8 16 6 14 5 9 2 10 13 28 18 17 31 18 32 20 15 20 31 53 59
27 29 34 39 39 38 37 35 35 27 20 19 20 14 17 6 6 9 16 21 24 15 24 29 15 9 5 4 7 12 14 23 5 31 12 28 11 34 29 25 24 16 28 40 56
22 25 28 32 32 37 40 35 26 18 13 12 8 12 8 7 16 25 21 23 21 28 17 14 10 10 10 11 22 10 17 9 29 12 13 19 22 10 42 51 41 28 15 31 46
23 26 26 26 28 31 33 24 15 7 9 11 14 15 37 32 34 19 22 21 23 8 2 7 11 28 26 21 19 5 9 25 6 13 13 31 21 34 28 43 48 49 34 25 41
16 17 19 22 23 24 24 15 15 13 21 22 14 22 20 16 19 25 18 5 1 8 5 8 25 19 14 17 25 26 11 12 12 8 10 7 28 28 31 35 53 56 45 30 33
15 15 19 20 20 18 20 22 16 9 9 18 6 8 5 12 11 22 4 2 7 4 8 15 11 20 24 28 23 29 35 8 6 9 6 4 13 18 20 41 44 58 53 42 33
18 17 18 18 14 16 17 24 12 10 9 11 7 5 7 15 10 19 18 13 5 13 11 16 24 30 24 22 27 26 17 19 20 5 7 9 19 22 31 26 37 57 60 58 46
18 15 16 14 14 13 16 13 10 8 8 8 6 7 17 8 20 2 6 9 14 9 7 13 6 12 23 37 21 13 12 27 21 7 7 9 5 11 22 40 44 37 52 74 73
18 14 13 10 9 10 15 6 10 11 9 12 9 9 12 5 6 10 9 13 8 8 12 13 8 6 5 15 33 10 16 5 11 15 13 29 17 9 13 19 25 26 51 68 56
13 11 8 8 8 11 9 5 9 8 8 14 5 9 6 7 9 5 5 4 7 5 5 8 32 17 14 7 9 21 11 11 16 15 29 27 13 29 4 6 10 28 48 58 60
10 8 5 6 10 10 8 9 10 6 11 7 7 9 3 6 7 8 9 5 8 8 4 6 12 22 21 26 7 22 16 4 11 20 38 12 23 22 14 13 6 17 36 44 59
12 8 2 1 4 6 3 7 12 12 6 7 14 9 12 9 3 10 4 5 7 10 14 7 12 2 15 12 22 11 22 30 7 4 9 11 29 12 5 7 10 8 27 47 61
13 7 2 1 4 3 7 8 7 9 5 1 3 4 6 9 8 9 5 4 10 4 18 8 10 11 2 25 27 14 13 11 13 6 9 9 17 24 13 12 8 12 25 39 63
12 8 6 3 4 4 6 12 10 16 9 7 6 6 10 6 7 5 12 8 8 9 17 4 4 7 4 9 15 10 25 12 8 8 8 6 10 5 13 12 21 18 36 46 52
7 2 9 4 3 5 4 10 4 8 7 9 6 8 7 6 6 6 10 9 9 12 12 8 7 8 18 4 16 12 28 29 9 9 6 3 8 8 14 12 23 32 42 49 58
5 6 9 6 3 4 6 8 9 6 9 4 6 11 4 6 4 11 7 8 3 7 10 13 4 6 13 3 3 10 10 10 19 8 8 13 9 12 16 23 32 40 52 58 59
4 2 5 9 5 9 4 8 7 10 11 9 9 2 2 7 12 10 9 8 24 8 13 21 7 13 10 8 3 7 5 2 5 14 12 8 9 4 10 28 32 42 53 57 55
5 5 6 4 6 5 5 5 4 6 10 9 7 11 9 6 7 9 8 9 13 6 19 4 9 7 14 14 9 8 14 16 17 20 28 10 11 24 19 29 40 62 54 51 47
6 6 3 1 5 5 7 9 11 7 9 9 10 6 9 11 15 21 8 3 11 7 9 2 7 9 8 12 10 17 23 22 31 38 31 20 3 9 24 28 37 47 60 53 46
14 13 5 7 5 5 10 11 11 8 14 23 14 6 13 25 33 42 42 28 25 16 14 7 6 6 9 5 12 13 14 17 24 27 31 34 16 22 18 28 40 51 52 51 47
Wind_Direction_850mb
5 1 0 2 1 359 358 357 356 359 354 1 1 356 350 352 355 19 50 336 291 242 244 234 237 218 228 215 205 170 95 210 223 159 242 327 335 21 167 154 178 197 192 209 174
355 354 351 349 349 350 350 353 352 352 350 349 356 353 343 349 35 88 55 301 303 262 245 242 238 223 202 208 203 175 166 206 216 180 203 302 342 329 68 149 163 169 186 180 175
346 347 350 344 340 342 345 345 345 344 345 344 343 355 340 340 51 100 42 322 309 309 260 238 232 222 199 193 204 192 196 200 194 190 210 265 314 335 229 192 229 192 172 176 181
345 347 346 344 342 335 336 338 339 338 337 335 337 340 341 342 60 226 276 301 323 332 249 218 207 200 195 184 205 225 229 204 187 199 189 273 317 319 276 176 295 243 195 184 188
349 347 345 344 338 331 328 328 331 332 330 329 331 333 340 333 332 248 273 277 298 315 320 215 205 211 221 179 200 233 232 212 208 204 215 209 237 263 278 296 289 232 192 195 198
344 343 344 340 335 333 328 326 327 323 321 321 321 324 328 319 293 277 308 308 266 278 286 275 21 302 287 277 180 295 225 181 185 196 210 201 224 216 280 260 306 198 195 199 203
335 336 338 339 332 332 328 328 323 316 313 312 311 311 308 303 290 294 289 295 274 270 269 254 340 347 345 336 268 254 298 256 211 199 220 155 253 214 233 269 221 205 203 200 208
331 327 331 336 331 328 324 324 319 313 305 304 307 306 281 294 314 324 321 342 290 267 250 255 292 313 241 315 274 186 186 234 183 171 216 162 242 215 216 211 211 211 213 211 213
327 325 325 326 327 327 325 326 319 312 300 302 300 301 282 313 315 331 346 336 324 300 260 258 278 239 207 252 201 216 215 224 299 200 165 193 229 221 202 194 174 177 215 219 222
308 313 317 319 324 325 327 329 315 314 294 290 287 300 286 328 310 296 308 313 330 327 299 259 235 235 182 182 217 205 224 239 219 208 218 206 231 263 216 214 221 205 201 220 222
313 315 318 321 328 325 336 351 347 305 322 274 268 263 289 301 301 314 328 303 286 293 261 291 230 225 224 225 276 342 313 238 206 222 181 222 217 232 233 215 215 214 203 211 221
339 329 331 331 330 333 349 35 11 313 314 318 289 267 297 320 313 329 330 298 231 210 188 306 255 245 271 214 233 265 266 289 255 241 213 228 233 239 213 219 210 211 206 190 193
328 337 336 332 326 330 352 2 2 359 288 300 316 313 342 315 292 309 283 261 222 236 220 221 246 228 243 249 219 233 237 245 303 321 247 350 246 223 241 236 229 232 223 209 200
295 301 324 330 324 325 341 342 349 333 61 289 341 8 327 316 281 301 296 226 238 236 223 250 247 258 256 269 246 237 204 215 261 324 237 170 261 209 210 228 226 228 235 232 212
278 293 302 322 311 320 324 332 353 339 24 281 308 315 316 256 299 324 1 221 220 221 171 248 223 225 244 240 250 239 202 202 228 211 333 234 255 239 184 224 222 217 221 233 238
275 275 291 305 324 308 321 324 330 42 265 330 316 332 346 285 258 278 293 251 224 239 242 239 287 236 289 306 223 291 260 232 197 217 244 221 211 208 200 207 220 212 216 224 224
254 259 265 298 310 309 322 316 31 117 320 299 296 345 337 283 302 233 270 262 229 206 275 292 251 238 201 271 238 205 224 170 190 191 231 190 193 237 245 202 206 208 208 214 215
220 217 237 284 296 301 337 49 78 238 239 299 307 307 241 360 276 319 283 276 258 153 217 205 310 191 188 203 223 207 233 216 183 195 229 110 221 217 224 155 195 248 228 210 194
181 177 256 15 299 310 21 51 206 203 233 307 326 31 317 338 355 354 239 246 276 210 204 169 262 141 203 184 186 193 209 237 308 326 175 181 239 311 145 96 103 85 181 183 182
169 154 98 12 311 326 79 252 213 220 300 210 228 170 227 273 5 30 291 242 297 273 316 234 261 232 48 204 224 223 141 177 221 179 222 216 222 218 177 169 136 130 124 148 168
167 153 186 295 308 103 155 228 254 258 236 217 245 277 238 265 192 256 260 273 225 293 287 297 207 290 27 236 192 188 240 260 216 200 185 158 239 195 199 201 172 140 137 146 150
200 94 185 268 59 94 171 197 261 275 229 264 252 240 234 223 272 258 231 224 348 340 323 278 237 235 229 293 191 248 234 210 258 178 219 231 273 349 249 181 136 121 125 132 141
232 200 208 220 147 245 297 275 239 225 232 230 258 222 214 245 282 220 258 274 337 353 351 1 273 344 325 3 59 235 201 223 252 272 236 189 243 346 114 100 115 123 128 131 130
242 13 185 198 195 146 178 268 287 238 246 227 248 219 312 258 220 266 284 280 321 237 313 323 244 187 211 221 251 284 266 335 252 234 231 264 159 159 153 131 125 126 133 134 132
253 257 202 248 251 129 186 197 237 277 225 218 280 214 183 282 286 239 244 303 300 281 341 293 266 225 243 249 256 257 271 275 257 260 220 213 227 187 173 153 146 143 140 135 132
251 197 199 239 143 121 232 242 207 260 193 258 210 259 190 219 212 280 289 214 256 324 336 270 280 308 277 245 250 282 282 273 260 251 253 171 169 124 115 125 134 144 147 145 140
226 240 245 170 144 147 225 227 211 170 253 235 222 231 249 258 266 268 270 252 256 278 292 273 336 303 268 326 324 301 243 242 261 229 188 180 175 147 132 148 156 156 156 151 149